Location: Newark
(7.0858°N, 171.3717°E)
Time: 15:47:58
(UTC+00:00)

Vanguard 3 - Pass Details

Date: 02 December 2020
Orbit: 508 x 3262 km, 33.4° (Epoch: 14 January)

Event Time Altitude Azimuth Distance (km) Brightness Sun altitude
Rises 06:53:17 0° 271° (W) 3,944 12.1 -9.4°
Reaches altitude 10° 06:58:17 10° 299° (WNW) 2,424 10.2 -10.6°
Maximum altitude 07:00:29 12° 323° (NW) 2,051 9.4 -11.1°
Drops below altitude 10° 07:02:24 10° 348° (NNW) 2,038 9.1 -11.5°
Enters shadow 07:04:50 - 15° (NNE) 2,457 9.3 -12.1°
